KE0RKB Weather Reports


Display with metric or nautical units.
time (UTC)temp
F
wind
direction
speed
MPH
gust
MPH
rain 1hr
in
rain 24hr
in
rain mn
in
humidity
%
barometer
mb
20260507143045 49 1 8.0 15.0 0.00 0.20 0.00 47 1017.8
20260507141541 47 1 11.0 18.0 0.00 0.20 0.00 49 1017.4
20260507140052 46 360 9.0 18.0 0.00 0.20 0.00 51 1017.5
20260507134551 45 1 11.0 17.0 0.00 0.20 0.00 50 1017.6
20260507133055 44 1 13.0 17.0 0.00 0.20 0.00 50 1017.5
20260507131555 42 1 10.0 21.0 0.00 0.20 0.00 51 1017.3
20260507130106 42 1 13.0 18.0 0.00 0.20 0.00 49 1017.1
20260507124548 42 1 12.0 17.0 0.00 0.20 0.00 48 1016.8
20260507123042 41 1 13.0 19.0 0.00 0.20 0.00 50 1016.6
20260507121556 41 1 13.0 21.0 0.00 0.20 0.00 48 1016.7
20260507120045 41 360 13.0 19.0 0.00 0.20 0.00 48 1016.6
20260507114555 40 1 11.0 16.0 0.00 0.20 0.00 50 1016.5
20260507113045 40 1 11.0 18.0 0.00 0.20 0.00 49 1016.4
20260507111543 40 1 13.0 18.0 0.00 0.20 0.00 50 1016.4
20260507110053 39 1 12.0 18.0 0.00 0.20 0.00 52 1016.3
20260507104544 40 1 13.0 19.0 0.00 0.20 0.00 51 1016.5
20260507103047 40 1 11.0 18.0 0.00 0.20 0.00 51 1016.7
20260507101538 39 1 12.0 17.0 0.00 0.20 0.00 54 1017.0
20260507100043 39 1 11.0 18.0 0.00 0.20 0.00 53 1017.2
20260507094546 39 1 13.0 19.0 0.00 0.20 0.00 54 1017.0
20260507093049 39 1 12.0 18.0 0.00 0.20 0.00 55 1017.2
20260507091544 38 1 12.0 19.0 0.00 0.20 0.00 57 1017.0
20260507090040 38 1 12.0 21.0 0.00 0.20 0.00 57 1017.1
20260507084545 38 1 13.0 19.0 0.00 0.20 0.00 59 1017.0
20260507083044 38 360 10.0 19.0 0.00 0.20 0.00 60 1017.0
20260507081548 38 1 12.0 19.0 0.00 0.20 0.00 61 1017.4
20260507080040 37 360 11.0 20.0 0.00 0.20 0.00 66 1017.4
20260507074559 37 360 11.0 18.0 0.00 0.20 0.00 66 1017.5
20260507073045 37 1 12.0 18.0 0.00 0.20 0.00 68 1017.7
20260507071540 37 1 11.0 18.0 0.00 0.20 0.00 71 1018.0
20260507070042 36 360 10.0 15.0 0.00 0.20 0.00 72 1017.9
20260507064542 36 360 8.0 15.0 0.00 0.20 0.00 73 1017.8
20260507063041 35 1 10.0 13.0 0.00 0.20 0.00 76 1017.9
20260507061543 34 1 10.0 14.0 0.00 0.20 0.00 80 1018.0
20260507060045 33 360 8.0 13.0 0.00 0.20 0.00 82 1018.2
20260507054628 33 1 7.0 12.0 0.00 0.20 0.20 83 1018.1
20260507053049 33 1 7.0 12.0 0.00 0.20 0.20 83 1018.3
20260507051544 32 1 8.0 10.0 0.00 0.20 0.20 84 1018.4
20260507050050 33 360 8.0 12.0 0.00 0.20 0.20 84 1018.5
20260507044559 33 1 9.0 14.0 0.00 0.20 0.20 84 1018.5
20260507043046 33 1 10.0 15.0 0.00 0.20 0.20 84 1018.6
20260507041548 33 1 10.0 17.0 0.00 0.20 0.20 83 1018.6
20260507040048 34 360 10.0 16.0 0.00 0.20 0.20 83 1018.4
20260507034556 34 1 10.0 13.0 0.00 0.20 0.20 83 1018.5
20260507033053 33 1 9.0 12.0 0.00 0.20 0.20 83 1018.5
20260507031606 33 1 9.0 13.0 0.00 0.20 0.20 82 1018.5
20260507030052 33 1 10.0 13.0 0.00 0.20 0.20 81 1018.4
20260507024546 33 1 8.0 11.0 0.00 0.20 0.20 82 1018.3
20260507023044 33 1 8.0 11.0 0.00 0.20 0.20 83 1018.4
20260507021547 33 1 8.0 11.0 0.00 0.20 0.20 83 1018.3
20260507020055 34 1 7.0 10.0 0.00 0.20 0.20 82 1018.5
20260507014557 35 1 7.0 10.0 0.00 0.20 0.20 79 1018.6
20260507013044 36 1 8.0 12.0 0.00 0.20 0.20 76 1018.4
20260507011543 37 1 7.0 9.0 0.00 0.20 0.20 75 1018.5
20260507010044 38 1 4.0 8.0 0.00 0.20 0.20 74 1018.8
20260507004542 37 1 5.0 8.0 0.00 0.20 0.20 72 1018.8
20260507003049 38 1 3.0 8.0 0.00 0.20 0.20 75 1018.9
20260507001544 37 1 4.0 10.0 0.00 0.20 0.20 73 1018.8
20260507000043 37 1 6.0 10.0 0.00 0.20 0.20 74 1019.0
20260506234539 37 1 6.0 9.0 0.00 0.24 0.20 74 1019.0
20260506233053 37 1 4.0 10.0 0.00 0.24 0.20 74 1019.2
20260506231544 37 1 3.0 9.0 0.00 0.24 0.20 75 1019.1
20260506230046 38 1 4.0 7.0 0.00 0.24 0.20 73 1019.2
20260506224541 37 1 4.0 9.0 0.00 0.28 0.20 79 1019.3
20260506223043 35 1 4.0 6.0 0.00 0.28 0.20 78 1019.5
20260506221543 36 1 4.0 7.0 0.00 0.28 0.20 77 1019.5
20260506220048 36 1 2.0 4.0 0.00 0.28 0.20 75 1019.6
20260506214542 38 0 0.0 2.0 0.00 0.29 0.20 73 1019.8
20260506213051 38 1 1.0 4.0 0.00 0.29 0.20 72 1019.9
20260506211543 39 1 2.0 4.0 0.00 0.29 0.20 70 1020.0
20260506210039 38 1 1.0 4.0 0.00 0.29 0.20 71 1020.1
20260506204551 41 1 0.0 0.0 0.00 0.30 0.20 68 1020.4
20260506203052 42 0 1.0 2.0 0.00 0.30 0.20 69 1020.4
20260506201553 39 1 2.0 4.0 0.00 0.30 0.20 77 1020.4
20260506200047 38 1 3.0 5.0 0.00 0.30 0.20 76 1020.4
20260506194556 38 1 4.0 7.0 0.00 0.31 0.20 76 1020.5
20260506193041 39 1 5.0 8.0 0.00 0.31 0.20 76 1020.7
20260506191548 37 1 4.0 7.0 0.00 0.31 0.20 81 1020.7
20260506190051 36 1 4.0 8.0 0.01 0.31 0.20 82 1020.8
20260506184541 35 1 5.0 8.0 0.01 0.33 0.20 84 1021.0
20260506183042 34 1 7.0 10.0 0.03 0.33 0.20 84 1021.1
20260506181544 34 1 6.0 11.0 0.05 0.33 0.20 86 1020.9
20260506180050 33 1 8.0 11.0 0.05 0.32 0.19 87 1020.9
20260506174545 32 1 9.0 13.0 0.07 0.33 0.19 88 1020.7
20260506173055 32 1 9.0 15.0 0.07 0.31 0.17 89 1020.7
20260506171549 32 1 11.0 18.0 0.06 0.29 0.15 90 1020.4
20260506170038 32 1 11.0 16.0 0.07 0.28 0.14 90 1020.2
20260506164542 32 1 10.0 16.0 0.06 0.28 0.12 90 1020.1
20260506163104 33 1 9.0 12.0 0.06 0.26 0.10 91 1019.8
20260506161542 32 1 8.0 11.0 0.05 0.25 0.09 92 1019.6
20260506160039 32 1 8.0 11.0 0.07 0.23 0.07 92 1019.6
20260506154555 32 1 9.0 13.0 0.06 0.23 0.06 93 1019.6
20260506153051 32 1 9.0 13.0 0.04 0.21 0.04 93 1019.3
20260506151543 31 1 8.0 11.0 0.03 0.20 0.03 93 1019.2
20260506150044 31 0 0.0 0.0 0.00 0.17 0.00 94 1019.0
20260506144538 31 0 0.0 0.0 0.00 0.18 0.00 94 1018.9